カタログに戻る

STARLINK-34859

運用中通信VLEO
NORAD 65348·PAYLOAD·🇺🇸 United States

打ち上げ Aug 27, 2025 から Cape Canaveral Space Force Station

Loading…

次のパス (今後24時間)

TLE

最新Source: CelesTrak SupGP

元期: Sep 15, 2026, 03:44 UTC

1 65348C 25189AB  26258.15604167  .00010394  00000+0  30710-3 0  2582
2 65348  53.1600  44.5406 0001179  91.8927 325.4198 15.34384921    13

AllMySatでSTARLINK-34859をリアルタイム追跡

Download on the App Store